Weather History for KMSL - September, 2013

Change the Weather History Date:

Sunday, September 1, 2013

  Actual Average Record
Temperature  
Mean Temperature 82 °F 78 °F  
Max Temperature 91 °F 89 °F 101 °F (1951)
Min Temperature 73 °F 67 °F 50 °F (1946)
Degree Days  
Heating Degree Days 0 0  
Month to date heating degree days 0 0  
Since 1 July heating degree days 0 0  
Cooling Degree Days 17 13  
Month to date cooling degree days 17 13  
Year to date cooling degree days 1498 1556  
Growing Degree Days 31 (Base 50)    
Moisture  
Dew Point 69 °F    
Average Humidity 67    
Maximum Humidity 87    
Minimum Humidity 46    
Precipitation  
Precipitation T in 0.11 in 1.76 in (1928)
Month to date precipitation T 0.11  
Year to date precipitation 42.89 35.82  
Snow  
Snow 0.00 in - - ()
Month to date snowfall 0.0  
Since 1 July snowfall 0.0  
Since 1 September snowfall 0.0  
Snow Depth 0.00 in    
Sea Level Pressure  
Sea Level Pressure 29.89 in    
Wind  
Wind Speed 3 mph (NW)    
Max Wind Speed 14 mph    
Max Gust Speed 20 mph    
Visibility 10 miles    
Events      
T = Trace of Precipitation, MM = Missing Value Source: NWS Daily Summary

Daily Weather History Graph

Daily Weather History Graph

Search for Another Location

Airport or City:

Trip Planner

Search our weather history database for the weather conditions in past years. The results will help you decide how hot, cold, wet, or windy it might be!

Date:

Astronomy

Sep. 01, 2013 Rise Set
Actual Time 6:23 AM CDT 7:16 PM CDT
Civil Twilight 5:57 AM CDT 7:42 PM CDT
Nautical Twilight 5:27 AM CDT 8:12 PM CDT
Astronomical Twilight 4:55 AM CDT 8:43 PM CDT
Moon 2:50 AM CDT (9/1) 4:48 PM CDT (9/1)
Length of Visible Light 13h 44m
Length of Day
12h 52m
Waning Crescent, 13% of the Moon is Illuminated
Sep 1
Waning Crescent
Sep 5
New
Sep 12
First Quarter
Sep 19
Full
Sep 26
Last Quarter

Hourly Weather History & Observations

Time (CDT) Temp. Heat Index Dew Point Humidity Pressure Visibility Wind Dir Wind Speed Gust Speed Precip Events Conditions
12:53 AM 75.0 °F - 72.0 °F 90% 29.87 in 10.0 mi Calm Calm - N/A   Clear
1:53 AM 75.0 °F - 71.1 °F 87% 29.87 in 10.0 mi Calm Calm - N/A   Clear
2:53 AM 77.0 °F - 71.1 °F 82% 29.87 in 10.0 mi Calm Calm - N/A   Mostly Cloudy
3:53 AM 75.0 °F - 70.0 °F 84% 29.86 in 10.0 mi Calm Calm - N/A   Partly Cloudy
4:53 AM 75.9 °F - 70.0 °F 82% 29.86 in 10.0 mi SW 3.5 mph - N/A   Clear
5:53 AM 75.9 °F - 70.0 °F 82% 29.88 in 10.0 mi Calm Calm - N/A   Clear
6:53 AM 73.0 °F - 69.1 °F 87% 29.89 in 10.0 mi South 3.5 mph - N/A   Clear
7:53 AM 79.0 °F - 72.0 °F 79% 29.90 in 10.0 mi Calm Calm - N/A   Partly Cloudy
8:53 AM 82.9 °F 88.0 °F 72.0 °F 69% 29.92 in 10.0 mi West 4.6 mph - N/A   Clear
9:53 AM 81.0 °F 84.9 °F 71.1 °F 72% 29.96 in 10.0 mi North 8.1 mph - N/A   Mostly Cloudy
10:53 AM 80.1 °F 82.3 °F 66.9 °F 64% 29.98 in 10.0 mi Variable 3.5 mph - N/A   Overcast
11:53 AM 82.0 °F 84.9 °F 68.0 °F 62% 29.96 in 10.0 mi North 3.5 mph - 0.00 in   Scattered Clouds
12:53 PM 87.1 °F 88.3 °F 64.0 °F 46% 29.94 in 10.0 mi NNW 9.2 mph - N/A   Partly Cloudy
1:53 PM 87.1 °F 90.6 °F 68.0 °F 53% 29.91 in 10.0 mi NW 11.5 mph 17.3 mph N/A   Clear
2:53 PM 89.1 °F 91.3 °F 66.0 °F 46% 29.89 in 10.0 mi WNW 6.9 mph - N/A   Clear
3:53 PM 88.0 °F 91.4 °F 68.0 °F 51% 29.87 in 10.0 mi West 11.5 mph - N/A   Clear
4:53 PM 86.0 °F 89.4 °F 68.0 °F 55% 29.86 in 10.0 mi Calm Calm - N/A   Clear
5:53 PM 88.0 °F 92.1 °F 69.1 °F 53% 29.85 in 10.0 mi Calm Calm - N/A   Clear
6:53 PM 82.9 °F 86.5 °F 69.1 °F 63% 29.85 in 10.0 mi Calm Calm - N/A   Clear
7:53 PM 80.1 °F 83.2 °F 70.0 °F 71% 29.87 in 10.0 mi Calm Calm - N/A   Mostly Cloudy
8:53 PM 75.9 °F - 70.0 °F 82% 29.88 in 10.0 mi Calm Calm - N/A   Clear
9:53 PM 75.9 °F - 70.0 °F 82% 29.89 in 10.0 mi Calm Calm - N/A   Clear
10:53 PM 75.0 °F - 70.0 °F 84% 29.89 in 10.0 mi Calm Calm - N/A   Scattered Clouds
11:53 PM 75.0 °F - 70.0 °F 84% 29.90 in 10.0 mi NNE 3.5 mph - N/A   Mostly Cloudy